Weather History for KJMS - March, 2013

Change the Weather History Date:

Monday, March 18, 2013

  Actual Average Record
Temperature  
Mean Temperature 14 °F 28 °F  
Max Temperature 27 °F 38 °F 79 °F (2012)
Min Temperature 1 °F 19 °F -22 °F (1923)
Degree Days  
Heating Degree Days 51 37  
Month to date heating degree days 900 730  
Since 1 July heating degree days 7647 7489  
Cooling Degree Days 0 0  
Month to date cooling degree days 0 0  
Year to date cooling degree days 0 0  
Moisture  
Dew Point 8 °F    
Average Humidity 81    
Maximum Humidity 92    
Minimum Humidity 69    
Precipitation  
Precipitation 0.05 in 0.03 in 0.57 in (1968)
Month to date precipitation 0.27 0.44  
Year to date precipitation 0.76 1.29  
Sea Level Pressure  
Sea Level Pressure 29.68 in    
Wind  
Wind Speed 26 mph (NW)    
Max Wind Speed 43 mph    
Max Gust Speed 52 mph    
Visibility 2 miles    
Events Fog , Snow    
T = Trace of Precipitation, MM = Missing Value Source: NWS Daily Summary

Daily Weather History Graph

Daily Weather History Graph

Search for Another Location

Airport or City:

Trip Planner

Search our weather history database for the weather conditions in past years. The results will help you decide how hot, cold, wet, or windy it might be!

Date:

Astronomy

Mar. 18, 2013 Rise Set
Actual Time 7:41 AM CDT 7:44 PM CDT
Civil Twilight 7:10 AM CDT 8:15 PM CDT
Nautical Twilight 6:35 AM CDT 8:50 PM CDT
Astronomical Twilight 5:58 AM CDT 9:27 PM CDT
Moon 11:20 AM CDT (3/18) 2:06 AM CDT (3/18)
Length of Visible Light 13h 04m
Length of Day
12h 03m
Waxing Crescent, 41% of the Moon is Illuminated
Mar 18
Waxing Crescent
Mar 19
First Quarter
Mar 27
Full
Apr 2
Last Quarter
Apr 10
New

Hourly Weather History & Observations

Time (CDT) Temp. Windchill Dew Point Humidity Pressure Visibility Wind Dir Wind Speed Gust Speed Precip Events Conditions
12:02 AM 24.8 °F 12.4 °F 21.2 °F 86% 29.47 in 3.0 mi SE 15.0 mph - 0.00 in Snow Light Snow
12:13 AM 24.8 °F 13.4 °F 21.2 °F 86% 29.47 in 3.0 mi SSE 12.7 mph - 0.00 in Snow Light Snow
12:41 AM 24.8 °F 14.6 °F 23.0 °F 93% 29.45 in 4.0 mi SSE 10.4 mph - 0.00 in   Overcast
12:52 AM 24.8 °F 14.6 °F 23.0 °F 93% 29.45 in 1.8 mi SSE 10.4 mph - 0.00 in Snow Light Snow
12:56 AM 25.0 °F 14.8 °F 23.0 °F 92% 29.53 in 1.5 mi SSE 10.4 mph - 0.00 in Snow Light Snow
1:12 AM 24.8 °F 15.3 °F 23.0 °F 93% 29.45 in 1.0 mi South 9.2 mph - 0.01 in Snow Light Snow
1:56 AM 26.1 °F 18.4 °F 23.0 °F 88% 29.52 in 1.0 mi WSW 6.9 mph - 0.03 in Snow Light Snow
2:10 AM 26.6 °F 12.7 °F 23.0 °F 86% 29.45 in 3.0 mi WNW 20.7 mph 25.3 mph 0.00 in Snow Light Snow
2:19 AM 24.8 °F 9.0 °F 21.2 °F 86% 29.45 in 3.0 mi WNW 25.3 mph 33.4 mph 0.00 in Snow Light Snow
2:22 AM 24.8 °F 9.0 °F 21.2 °F 86% 29.45 in 2.5 mi WNW 25.3 mph - 0.00 in Snow Light Snow
2:31 AM 24.8 °F 10.0 °F 21.2 °F 86% 29.46 in 2.0 mi WNW 21.9 mph 32.2 mph 0.00 in Snow Light Snow
2:38 AM 24.8 °F 10.0 °F 21.2 °F 86% 29.46 in 1.8 mi WNW 21.9 mph - 0.00 in Snow Light Snow
2:45 AM 24.8 °F 9.6 °F 19.4 °F 80% 29.47 in 2.5 mi WNW 23.0 mph 31.1 mph 0.00 in Snow Light Snow
2:56 AM 24.1 °F 8.7 °F 19.9 °F 84% 29.55 in 2.0 mi WNW 23.0 mph - 0.00 in Snow Light Snow
3:04 AM 23.0 °F 6.3 °F 19.4 °F 86% 29.48 in 1.8 mi WNW 26.5 mph 33.4 mph 0.00 in Snow Light Snow
3:13 AM 23.0 °F 4.6 °F 19.4 °F 86% 29.48 in 1.0 mi WNW 33.4 mph 39.1 mph 0.00 in Snow Light Snow
3:25 AM 19.4 °F 0.2 °F 15.8 °F 86% 29.49 in 0.8 mi NW 31.1 mph 41.4 mph 0.00 in Snow Light Snow
3:36 AM 17.6 °F -2.8 °F 14.0 °F 86% 29.49 in 1.0 mi NW 33.4 mph 41.4 mph 0.00 in Snow Light Snow
3:47 AM 17.6 °F -1.6 °F 12.2 °F 79% 29.50 in 0.8 mi WNW 28.8 mph 42.6 mph 0.00 in Snow Light Snow
3:56 AM 16.0 °F -3.5 °F 12.0 °F 84% 29.59 in 1.0 mi NW 27.6 mph 42.6 mph 0.00 in Snow Light Snow
4:07 AM 15.8 °F -3.7 °F 10.4 °F 79% 29.50 in 0.8 mi NW 27.6 mph 42.6 mph 0.00 in   Overcast
4:14 AM 15.8 °F -4.7 °F 10.4 °F 79% 29.50 in 0.8 mi NW 31.1 mph 43.7 mph 0.00 in   Overcast
4:26 AM 15.8 °F -5.0 °F 10.4 °F 79% 29.50 in 1.0 mi WNW 32.2 mph 40.3 mph 0.00 in Snow Blowing Snow
4:36 AM 14.0 °F -7.1 °F 10.4 °F 86% 29.51 in 1.0 mi WNW 31.1 mph 40.3 mph 0.00 in Snow Blowing Snow
4:43 AM 14.0 °F -7.7 °F 8.6 °F 79% 29.51 in 1.0 mi NW 33.4 mph 40.3 mph 0.00 in   Overcast
4:52 AM 12.2 °F -9.6 °F 8.6 °F 85% 29.52 in 1.0 mi WNW 31.1 mph 41.4 mph 0.00 in Snow Blowing Snow
4:56 AM 12.9 °F -8.0 °F 9.0 °F 84% 29.61 in 1.0 mi WNW 28.8 mph 41.4 mph 0.00 in Snow Blowing Snow
5:28 AM 12.2 °F -8.9 °F 8.6 °F 85% 29.53 in 0.8 mi WNW 28.8 mph 41.4 mph 0.00 in Snow Light Snow
5:56 AM 10.0 °F -12.8 °F 6.1 °F 84% 29.65 in 0.8 mi WNW 32.2 mph 43.7 mph 0.00 in Snow Light Snow
6:16 AM 8.6 °F -14.5 °F 5.0 °F 85% 29.57 in 1.2 mi WNW 31.1 mph 38.0 mph 0.00 in Snow Blowing Snow
6:56 AM 9.0 °F -13.7 °F 5.0 °F 84% 29.67 in 1.0 mi NW 29.9 mph 41.4 mph 0.00 in Snow Light Snow
7:06 AM 8.6 °F -14.1 °F 5.0 °F 85% 29.59 in 0.8 mi NW 29.9 mph 41.4 mph 0.00 in Snow Light Snow
7:27 AM 8.6 °F -15.7 °F 3.2 °F 79% 29.59 in 0.2 mi NW 35.7 mph 51.8 mph 0.01 in Snow Heavy Snow
7:43 AM 8.6 °F -15.4 °F 3.2 °F 79% 29.60 in 0.5 mi NW 34.5 mph 46.0 mph 0.01 in Fog , Snow Light Snow
7:52 AM 8.6 °F -16.6 °F 3.2 °F 79% 29.60 in 0.2 mi NW 39.1 mph 44.9 mph 0.01 in Fog , Snow Light Snow
7:56 AM 8.1 °F -16.8 °F 3.9 °F 83% 29.69 in 0.2 mi NW 36.8 mph 43.7 mph 0.01 in Fog , Snow Light Snow
8:56 AM 8.1 °F -16.5 °F 3.9 °F 83% 29.72 in 0.2 mi NW 35.7 mph 42.6 mph 0.00 in Fog , Snow Light Snow
9:19 AM 8.6 °F -16.3 °F 3.2 °F 79% 29.64 in 0.2 mi NW 38.0 mph 44.9 mph 0.00 in Snow Heavy Snow
9:43 AM 8.6 °F -13.8 °F 3.2 °F 79% 29.67 in 0.8 mi NW 28.8 mph 41.4 mph 0.00 in Snow Blowing Snow
9:56 AM 8.1 °F -14.9 °F 3.0 °F 80% 29.76 in 0.2 mi NW 29.9 mph 41.4 mph 0.00 in   Unknown
10:03 AM 8.6 °F -15.7 °F 1.4 °F 73% 29.68 in 0.2 mi NW 35.7 mph 46.0 mph 0.00 in   Unknown
10:29 AM 8.6 °F -14.5 °F 3.2 °F 79% 29.70 in 0.5 mi NW 31.1 mph 40.3 mph 0.01 in   Unknown
10:56 AM 8.1 °F -16.2 °F 3.0 °F 80% 29.80 in 0.5 mi NW 34.5 mph 47.2 mph 0.01 in   Overcast
11:11 AM 8.6 °F -13.8 °F 3.2 °F 79% 29.72 in 0.2 mi NW 28.8 mph 39.1 mph 0.00 in   Unknown
11:21 AM 8.6 °F -15.1 °F 3.2 °F 79% 29.72 in 0.5 mi NW 33.4 mph 44.9 mph 0.00 in Snow Blowing Snow
11:32 AM 8.6 °F -16.0 °F 1.4 °F 73% 29.72 in 0.2 mi NW 36.8 mph 44.9 mph 0.00 in   Unknown
11:56 AM 9.0 °F -15.8 °F 3.0 °F 77% 29.82 in 0.2 mi NW 38.0 mph 46.0 mph 0.00 in   Overcast
12:13 PM 8.6 °F -14.8 °F 3.2 °F 79% 29.73 in 0.5 mi NW 32.2 mph 42.6 mph 0.00 in Snow Blowing Snow
12:24 PM 10.4 °F -12.3 °F 3.2 °F 73% 29.74 in 0.2 mi NW 32.2 mph 47.2 mph 0.00 in   Unknown
12:39 PM 10.4 °F -12.7 °F 3.2 °F 73% 29.75 in 0.5 mi NW 33.4 mph 44.9 mph 0.00 in Snow Blowing Snow
12:49 PM 10.4 °F -13.0 °F 3.2 °F 73% 29.76 in 0.2 mi NW 34.5 mph 43.7 mph 0.00 in   Unknown
12:56 PM 10.0 °F -13.7 °F 3.0 °F 73% 29.85 in 0.5 mi NW 35.7 mph 42.6 mph 0.00 in   Unknown
1:56 PM 10.9 °F -10.6 °F 3.9 °F 73% 29.88 in 0.8 mi NW 28.8 mph 42.6 mph 0.00 in Snow Blowing Snow
2:56 PM 10.9 °F -10.3 °F 5.0 °F 77% 29.89 in 0.8 mi NW 27.6 mph 36.8 mph N/A Snow Blowing Snow
3:14 PM 10.4 °F -11.7 °F 3.2 °F 73% 29.82 in 1.5 mi NW 29.9 mph 35.7 mph 0.00 in Snow Blowing Snow
3:28 PM 10.4 °F -12.3 °F 5.0 °F 79% 29.82 in 0.8 mi NW 32.2 mph 39.1 mph 0.00 in Snow Blowing Snow
3:33 PM 10.4 °F -11.0 °F 3.2 °F 73% 29.82 in 1.0 mi NW 27.6 mph - 0.00 in Snow Blowing Snow
3:54 PM 10.4 °F -12.3 °F 3.2 °F 73% 29.83 in 0.8 mi NW 32.2 mph 40.3 mph 0.00 in Snow Blowing Snow
3:56 PM 10.9 °F -11.6 °F 3.9 °F 73% 29.92 in 0.8 mi NW 32.2 mph 40.3 mph 0.00 in Snow Blowing Snow
4:04 PM 10.4 °F -11.0 °F 5.0 °F 79% 29.83 in 1.2 mi NW 27.6 mph 40.3 mph N/A Snow Blowing Snow
4:27 PM 10.4 °F -10.7 °F 3.2 °F 73% 29.84 in 1.0 mi NW 26.5 mph 36.8 mph N/A Snow Blowing Snow
4:56 PM 10.9 °F -11.0 °F 3.9 °F 73% 29.95 in 1.2 mi NW 29.9 mph 38.0 mph N/A Snow Blowing Snow
5:27 PM 10.4 °F -11.0 °F 3.2 °F 73% 29.86 in 2.0 mi NW 27.6 mph 34.5 mph N/A Snow Blowing Snow
5:56 PM 10.9 °F -8.8 °F 3.9 °F 73% 29.97 in 5.0 mi NW 23.0 mph - N/A   Haze
6:38 PM 10.4 °F -9.5 °F 3.2 °F 73% 29.88 in 2.5 mi NW 23.0 mph 32.2 mph 0.00 in Snow Blowing Snow
6:46 PM 10.4 °F -9.1 °F 3.2 °F 73% 29.89 in 5.0 mi NW 21.9 mph - 0.00 in   Haze
6:54 PM 10.4 °F -9.1 °F 3.2 °F 73% 29.89 in 9.0 mi NW 21.9 mph - 0.00 in   Scattered Clouds
7:56 PM 7.0 °F -12.1 °F 1.0 °F 77% 30.03 in 10.0 mi NW 18.4 mph - N/A   Clear
8:56 PM 6.1 °F -11.6 °F -2.0 °F 69% 30.04 in 10.0 mi NW 15.0 mph - N/A   Clear
9:56 PM 3.9 °F -12.2 °F -4.0 °F 70% 30.06 in 10.0 mi NW 11.5 mph - N/A   Clear
10:56 PM 3.9 °F -12.2 °F -4.0 °F 70% 30.07 in 10.0 mi NW 11.5 mph - N/A   Clear
11:56 PM 1.9 °F -13.8 °F -5.1 °F 72% 30.10 in 10.0 mi WNW 10.4 mph - N/A   Clear